This is the latest recevied weather packets stored in our database for station/object PA5MB-15. If no packets are shown the sender has not sent any weather packets the latest 10 day(s).
| Time | Temp. | Humidity | Pressure | Rain* | Wind** | Luminosity | Snow |
|---|---|---|---|---|---|---|---|
| 1777830331 | 13.89° C | 98% | 1012 hPa | 1.27 mm | - | 4 W/m² | - |
| 1777830034 | 13.89° C | 98% | 1012.1 hPa | 1.27 mm | - | 5 W/m² | - |
| 1777829731 | 14.44° C | 98% | 1012.1 hPa | 1.02 mm | - | 4 W/m² | - |
| 1777829444 | 14.44° C | 98% | 1012.1 hPa | 1.27 mm | - | 3 W/m² | - |
| 1777829134 | 15° C | 98% | 1012.1 hPa | 1.27 mm | - | 2 W/m² | - |
| 1777828834 | 15° C | 97% | 1012.1 hPa | 2.79 mm | - | 1 W/m² | - |
| 1777828531 | 15° C | 97% | 1012.1 hPa | 2.54 mm | - | 1 W/m² | - |
| 1777828234 | 15° C | 97% | 1012 hPa | 2.54 mm | - | 1 W/m² | - |
| 1777827923 | 15° C | 97% | 1011.7 hPa | 2.54 mm | - | 1 W/m² | - |
| 1777827634 | 15° C | 97% | 1011.4 hPa | 2.54 mm | - | 1 W/m² | - |
| 1777827331 | 15° C | 97% | 1011.5 hPa | 2.79 mm | - | 2 W/m² | - |
| 1777827031 | 15° C | 97% | 1011.5 hPa | 3.56 mm | - | 3 W/m² | - |
| 1777826723 | 15° C | 97% | 1011.5 hPa | 3.56 mm | - | 4 W/m² | - |
| 1777826436 | 15° C | 96% | 1011.5 hPa | 3.56 mm | - | 7 W/m² | - |
| 1777826134 | 15° C | 96% | 1011.4 hPa | 3.56 mm | - | 9 W/m² | - |
| 1777825831 | 15° C | 96% | 1011.6 hPa | 2.79 mm | - | 6 W/m² | - |
| 1777825531 | 15.56° C | 95% | 1011.7 hPa | 2.54 mm | - | 2 W/m² | - |
| 1777825234 | 15.56° C | 95% | 1011.6 hPa | 1.02 mm | - | 1 W/m² | - |
| 1777824934 | 16.11° C | 95% | 1011.6 hPa | 1.02 mm | - | 1 W/m² | - |
| 1777824631 | 16.11° C | 95% | 1011.5 hPa | 1.02 mm | - | 2 W/m² | - |
| 1777824324 | 16.11° C | 95% | 1011.6 hPa | 1.02 mm | - | 2 W/m² | - |
| 1777824034 | 16.11° C | 94% | 1011.5 hPa | 1.02 mm | - | 3 W/m² | - |
| 1777823737 | 16.67° C | 93% | 1011.6 hPa | 0.76 mm | - | 4 W/m² | - |
| 1777823431 | 17.22° C | 92% | 1011.5 hPa | 0 mm | - | 6 W/m² | - |
| 1777823131 | 17.22° C | 92% | 1011.4 hPa | 0 mm | - | 7 W/m² | - |
* Rain latest hour (hover to see other rain measurements)
** Current wind speed in m/s (hover to see current wind gust speed)